Location: Carlingford
(46.7848°N, 67.7474°W)
Time: 13:48:54
(UTC+00:00)

N. Korean satellite - Pass Details

Date: 07 December 2022
Orbit: 407 x 441 km, 97.3° (Epoch: 05 February)

Event Time Altitude Azimuth Distance (km) Brightness Sun altitude
Rises 10:47:00 0° 359° (N) 2,515 10.0 -12.3°
Reaches altitude 10° 10:49:23 10° 344° (NNW) 1,626 8.9 -11.9°
Maximum altitude 10:52:05 21° 293° (WNW) 1,076 7.7 -11.5°
Drops below altitude 10° 10:54:45 10° 242° (WSW) 1,594 8.8 -11.0°
Sets 10:57:04 0° 226° (SW) 2,451 9.9 -10.7°
